Location: Hradec Kralove
(50.2170°N, 15.8330°E)
Time: 12:37:31
(UTC+01:00)

ISS - Visible Passes

Search period start: 10 December 2019 00:00
Search period end: 20 December 2019 00:00
Orbit: 411 x 421 km, 51.6° (Epoch: 10 December)

Date Brightness Start Highest point End Pass type
(mag) Time Alt. Az. Time Alt. Az. Time Alt. Az.
10 Dec -2.3 16:50:15 10° W 16:53:24 39° SSW 16:56:34 10° SE visible
11 Dec -0.6 17:39:28 10° WSW 17:41:11 13° SW 17:42:54 10° SSW visible
12 Dec -0.8 16:50:22 10° W 16:52:54 20° SW 16:55:25 10° S visible
